sat.trackr.live / text

‹ back to catalog

STARLINK-34413

NORAD 64616 · 2025-137Y

PAYLOAD ACTIVE UNKNOWN

§ Identity

Operator
Country
US
Launch date
2025-06-25
Launch site
AFETR
Launch vehicle
Mass (kg)
RCS (m²)

Purposes: comms

External: N2YO · Heavens-Above · Gunter

§ Orbital elements

Epoch: 2026-09-20T23:12:14.273568Z

Period
93.85 min
Inclination
53.1568°
Eccentricity
0.0001256
Mean motion
15.34409169 rev/d
Perigee alt
461.8 km
Apogee alt
463.5 km
Semi-major
6,840.8 km
B*
4.2713e-4
RAAN
145.2863°
Arg perigee
87.1468°
Mean anomaly
272.9678°
Rev number
7,077

§ Raw data

STARLINK-344131 64616U 25137Y   26263.96683187  .00014086  00000+0  42713-3 0  99962 64616  53.1568 145.2863 0001256  87.1468 272.9678 15.34409169 70774

JSON: /api/v1/satellites/64616 · /tle

For live sub-satellite position, see the globe view (requires WebGL).

§ Visibility from observer

Set your observer location to see the next 7 days of passes ≥ 10°. The values pass through the URL so the page stays shareable.

No JS? Fill the form by hand. The geolocation button needs JavaScript.